STARLINK-30156 (57466 NORAD) Tracking and Keplerian Element Data

This shows tracking and keplerian element data for the satellite.

Feedback or suggestion? Click here.




ElementValue
Catalog57466
NameSTARLINK-30156
Epoch Orbit589
Epoch Day239.00001157
Epoch Year2023
RAAN323.7573
Inclination43.0033
Eccentricity0.0010841
Argument of Perigee19.7484
Mean Anonmoly16.585
Mean Motion15.68883804
Decay Rate0.00061301
L11 57466U 23107K 23239.00001157 .00061301 00000+0 51660-3 0 9995
L22 57466 43.0033 323.7573 0010841 19.7484 16.5850 15.68883804 5898



Live tracking and technical data element details for STARLINK-30156 (NORAD 57466). STARLINK-30156 can be tracked NOW for your location showing map with azimuth and elevation plus other details from your city location.







IsCatalogInMostPopularTable: catalog: 57466, numindb: 8
Update: records affected: 1



GetName: 57466 STARLINK-30156

Hit Count: updated at: Thu, 22 Feb 2024 01:23:01 GMT